Regional Weather Roundup
Issued by NWS San Angelo, TX

Home | Current Version | Previous Version | Text Only | Print | Product List | Glossary On
Versions: 1 2 3 4 5 6 7 8 9 10 11 12 13 14 15 16 17 18 19 20 21 22 23 24 25 26 27 28 29 30 31 32 33 34 35 36 37 38 39 40 41 42 43 44 45 46 47 48 49 50
000
ASUS44 KSJT 250402
RWRSJT
WEST CENTRAL TEXAS REGIONAL WEATHER ROUNDUP
NATIONAL WEATHER SERVICE SAN ANGELO TX
1100 PM CDT TUE MAY 24 2016

NOTE: "FAIR" INDICATES FEW OR NO CLOUDS BELOW 12,000 FEET WITH NO
SIGNIFICANT WEATHER AND/OR OBSTRUCTIONS TO VISIBILITY.

TXZ049-054-064>066-071>073-076>078-098-099-113-114-127-128-139-140-
154-155-168>170-250500
...LOCATIONS ACROSS WEST CENTRAL TEXAS...

CITY           SKY/WX    TMP DP  RH WIND       PRES   REMARKS
SAN ANGELO     CLOUDY    78  71  79 S16G22    29.92R
ABILENE        CLOUDY    75  72  90 S14       29.91R
DYESS AFB      NOT AVBL
JUNCTION       PTCLDY    76  72  87 SE5       29.96S
SWEETWATER     NOT AVBL
BROWNWOOD      CLOUDY    77  73  88 SE12      29.93R
COLEMAN        PTCLDY    75  72  90 S8        29.93S
SONORA         NOT AVBL
OZONA          NOT AVBL
BRADY          NOT AVBL
$$

TEXAS PANHANDLE/OKLAHOMA PANHANDLE

CITY           SKY/WX    TMP DP  RH WIND       PRES   REMARKS
AMARILLO       CLEAR     71  53  52 S15       29.86S
BORGER         CLEAR     75  68  78 S22G30    29.80S
CANADIAN       CLEAR     76  70  83 S16G26    29.81R
DALHART        CLEAR     62  35  36 W10G28    29.85R
DUMAS          CLEAR     61  37  41 S8        29.83F
GUYMON         NOT AVBL
HEREFORD       CLEAR     73  30  20 SW12      29.89R
PAMPA          NOT AVBL
PERRYTON       NOT AVBL
$$

SOUTHERN PANHANDLE/SOUTH PLAINS/ROLLING PLAINS

CITY           SKY/WX    TMP DP  RH WIND       PRES   REMARKS
LUBBOCK        PTCLDY    75  58  55 S13       29.91R
SNYDER           N/A     76  67  73 S10       29.91S
CHILDRESS      CLEAR     77  71  82 S17       29.83R
SEMINOLE       CLOUDY    77  53  41 S14       29.95R
$$

PERMIAN BASIN

CITY           SKY/WX    TMP DP  RH WIND       PRES   REMARKS
MIDLAND        CLOUDY    80  63  55 S17G24    29.93R
ODESSA         LGT RAIN  80  63  55 S18G26    29.94R
WINK           MOCLDY    80  58  46 MISG      29.90R
$$

FAR WEST/SOUTHWEST MOUNTAINS/TRANS PECOS

CITY           SKY/WX    TMP DP  RH WIND       PRES   REMARKS
ALPINE         NOT AVBL
DRYDEN           N/A     79  73  82 SE13G22   29.93R
EL PASO        MOCLDY    82   9   6 W22G29    29.98R
FORT STOCKTON  CLOUDY    80  65  59 S17G23    29.94R
GUADALUPE PASS NOT AVBL
MARFA          PTCLDY    65  33  30 SE8       30.10R
PECOS          NOT AVBL
$$

DALLAS/FORT WORTH METROPLEX

CITY           SKY/WX    TMP DP  RH WIND       PRES   REMARKS
DFW AIRPORT    CLOUDY    83  73  72 S13       29.92R
FTW MEACHAM      N/A     83  73  72 S16       29.91R
DAL-EXECUTIVE  CLOUDY    81  73  76 SE8       29.93R
GRAND PRAIRIE  MOCLDY    82  72  72 SE10      29.94R
ADDISON        NOT AVBL
MESQUITE       CLOUDY    80  74  83 SE13      29.94R
LANCASTER      CLOUDY    80  72  75 SE9       29.95R
$$

NORTH CENTRAL TEXAS

CITY           SKY/WX    TMP DP  RH WIND       PRES   REMARKS
SHRMAN/DENISON PTCLDY    76  68  76 SE12      29.92F
GAINESVILLE    NOT AVBL
BRIDGEPORT     NOT AVBL
DENTON         CLOUDY    81  72  74 SE14      29.91S
WAXAHACHIE     CLOUDY    80  74  82 SE8       29.95R
GRANBURY       NOT AVBL
$$

WESTERN NORTH TEXAS

CITY           SKY/WX    TMP DP  RH WIND       PRES   REMARKS
WICHITA FALLS  PTCLDY    77  71  82 S13       29.87R
VERNON         CLEAR     78  68  71 S14       29.86R
BRECKENRIDGE   NOT AVBL
COMANCHE       CLOUDY    76  76  98 SE8       29.94R
$$

CENTRAL AND SOUTH CENTRAL TEXAS

CITY           SKY/WX    TMP DP  RH WIND       PRES   REMARKS
AUSTIN/BERGSTM PTCLDY    77  73  87 S7        29.96R
WACO           MOCLDY    80  72  76 S17G24    29.94R
HILLSBORO      CLOUDY    78  73  85 SE10      29.95R
TEMPLE         CLOUDY    78  73  84 SE12      29.96
KILLEEN-GRAY   NOT AVBL
FORT HOOD      NOT AVBL
GEORGETOWN     NOT AVBL
LAGO VISTA     CLOUDY    77  72  84 S8G17     29.98S
SAN MARCOS     PTCLDY    75  72  88 S7        29.97R
NEW BRAUNFELS  MOCLDY    76  72  87 S6        29.95R
RANDOLPH AFB   NOT AVBL
SAN ANTONIO    CLOUDY    78  72  81 SE13      29.97R
STINSON        CLOUDY    80  73  79 SE9       29.94R
PLEASANTON     NOT AVBL
LA GRANGE      NOT AVBL
GIDDINGS       MOCLDY    78  72  81 S7        30.01R
$$

EAST TEXAS

CITY           SKY/WX    TMP DP  RH WIND       PRES   REMARKS
PARIS          PTCLDY    77  66  69 SE12      29.97S
CLARKSVILLE    NOT AVBL
TYLER          MOCLDY    80  72  76 S13       29.98S
LONGVIEW       CLOUDY    79  72  79 S14       30.01S
PALESTINE      CLOUDY    79  74  83 SE9       30.00S
NACOGDOCHES    CLOUDY    75  72  88 SE6       30.04R
$$

TEXAS HILL COUNTRY AND EDWARDS PLATEAU

CITY           SKY/WX    TMP DP  RH WIND       PRES   REMARKS
LLANO          NOT AVBL
HORSESHOE BAY  FAIR      77  72  84 SE7       29.96R
KERRVILLE      CLOUDY    76  74  92 SE8       29.99R
FREDERICKSBRG  NOT AVBL
ROCKSPRINGS    NOT AVBL
HONDO          CLOUDY    80  75  84 SE12      29.98R
UVALDE         MOCLDY    78  75  90 E10       29.96R
DEL RIO        CLOUDY    80  76  87 E7        29.92R
$$

SOUTHEAST TEXAS

CITY           SKY/WX    TMP DP  RH WIND       PRES   REMARKS
COLLEGE STN    CLOUDY    78  73  84 SE15      29.98R
CALDWELL       NOT AVBL
CROCKETT       NOT AVBL
BRENHAM        CLOUDY    78  75  88 SE7       29.99S
HUNTSVILLE     MOCLDY    79  72  79 SE6       30.01R
CONROE         CLOUDY    77  73  87 SE8       30.02R
HOUSTON BUSH   MOCLDY    77  75  93 SE12      30.01R
HOUSTON HOBBY  MOCLDY    80  75  84 SE9       30.01R
PERLAND        MOCLDY    81  76  84 SE10      30.02R
WHARTON        CLOUDY    76  74  93 SE5       30.00R FOG
$$

THE UPPER TEXAS COAST

CITY           SKY/WX    TMP DP  RH WIND       PRES   REMARKS
ORANGE         CLOUDY    79  74  84 SE10      30.06F
PORT ARTHUR    CLOUDY    79  74  84 SE15      30.04R
GALVESTON      CLOUDY    79  78  97 SE12      30.04R
ANGLETON       CLOUDY    80  77  90 SE8       30.00S
BAY CITY       NOT AVBL
$$

TEXAS COASTAL BEND, RIO GRANDE PLAINS DEEP SOUTH TEXAS

CITY           SKY/WX    TMP DP  RH WIND       PRES   REMARKS
VICTORIA       CLOUDY    79  76  90 SE9       29.98R
BEEVILLE       CLOUDY    78  78 100 SE9       29.95R
ROCKPORT       MOCLDY    81  77  88 SE12      29.95R
PORT ARANSAS   NOT AVBL
PORT LAVACA    PTCLDY    79  77  94 SE9       29.97R
CORPUS CHRISTI PTCLDY    81  77  88 SE12      29.95R
KINGSVILLE NAS CLOUDY    80  80 100 SE10      29.94R
COTULLA        CLOUDY    82  76  81 SE10      29.92R
LAREDO         CLOUDY    85  76  74 SE14      29.90R
BROWNSVILLE    MOCLDY    81  78  91 SE9       29.94R
PORT ISABEL    PTCLDY    82  79  90 SE14      29.93R
HEBBRONVILLE   NOT AVBL
MCALLEN        CLOUDY    83  76  79 SE12      29.93R
WESLACO        NOT AVBL
FALFURRIAS     PTCLDY    80  76  85 SE7       29.93R
EDINBURG       NOT AVBL
$$




USA.gov is the U.S. government's official web portal to all federal, state and local government web resources and services.